Flight Track Log - Related Links

Times and Time Zones

All times are in EDT time to prevent confusion due to time zone crossing. See the N8420F flight status page for this flight to view local times or setup timezone preferences in your user account.

Time Position Orientation Groundspeed Altitude Reporting Facility
EDT Latitude Longitude Course Direction KTS MPH feet Rate Location/Type
Sun 01:57:43 PM 39.6421 -75.5461 149° Southeast 94 108 1,800  Level FlightAware ADS-B
Sun 01:57:52 PM 39.6388 -75.5447 178° South 96 110 2,000 706 Climbing FlightAware ADS-B
Sun 01:58:00 PM 39.6371 -75.5446 203° Southwest 99 114 2,000 1,200 Level FlightAware ADS-B
Sun 01:58:22 PM 39.6291 -75.5584 281° West 88 101 2,600 1,200 Climbing FlightAware ADS-B (KWWD)
Sun 01:58:40 PM 39.6323 -75.5670 295° West 91 105 2,800 514 Climbing FlightAware ADS-B (KWWD)
Sun 01:58:57 PM 39.6319 -75.5660 297° West 107 123 2,900 529 Climbing FlightAware ADS-B
Sun 01:59:14 PM 39.6383 -75.5815 298° West 111 128 3,100 545 Climbing FlightAware ADS-B
Sun 01:59:30 PM 39.6422 -75.5908 299° West 116 133 3,200 508 Climbing FlightAware ADS-B
Sun 02:00:13 PM 39.6539 -75.6186 299° West 123 142 3,600 469 Climbing FlightAware ADS-B
Sun 02:00:34 PM 39.6596 -75.6319 299° West 123 142 3,700 146 Climbing FlightAware ADS-B
Sun 02:00:54 PM 39.6656 -75.6461 299° West 132 152 3,700  Level FlightAware ADS-B
Sun 02:01:13 PM 39.6698 -75.6564 278° West 136 157 3,700  Level FlightAware ADS-B
Sun 02:01:38 PM 39.6577 -75.6274 299° West 123 142 3,700  Level FlightAware ADS-B (KPHL)
Sun 02:01:52 PM 39.6680 -75.6928 259° West 137 158 3,700  Level FlightAware ADS-B
Sun 02:02:11 PM 39.6658 -75.7076 259° West 136 157 3,700  Level FlightAware ADS-B (KPHL)
Sun 02:02:28 PM 39.6645 -75.7170 260° West 137 158 3,700  Level FlightAware ADS-B (KPHL)
Sun 02:02:43 PM 39.6622 -75.7340 260° West 137 158 3,700  Level FlightAware ADS-B (KPHL)
Sun 02:03:28 PM 39.6576 -75.7700 260° West 137 158 3,700  Level FlightAware ADS-B (KPHL)
Sun 02:03:52 PM 39.6550 -75.7897 261° West 139 160 3,700  Level FlightAware ADS-B
Sun 02:04:11 PM 39.6530 -75.8054 260° West 138 159 3,700  Level FlightAware ADS-B (KPHL)
Sun 02:04:29 PM 39.6512 -75.8194 260° West 138 159 3,700  Level FlightAware ADS-B (KPHL)
Sun 02:04:55 PM 39.6477 -75.8469 264° West 138 159 3,700 295 Level FlightAware ADS-B (KWWD)
Sun 02:05:30 PM 39.6444 -75.8656 264° West 137 158 4,000  Climbing New York Center
Sun 02:07:32 PM 39.6444 -75.8727 260° West 138 159 3,700  Descending FlightAware ADS-B
Sun 02:08:15 PM 39.6333 -76.0000 260° West 138 159 4,000  Climbing Potomac TRACON
Sun 02:13:53 PM 39.5913 -76.2812 261° West 136 157 3,700 -50 Descending FlightAware ADS-B
Sun 02:14:18 PM 39.5888 -76.3001 260° West 135 155 3,700  Level FlightAware ADS-B
Sun 02:14:38 PM 39.5865 -76.3169 261° West 135 155 3,700  Level FlightAware ADS-B
Sun 02:17:35 PM 39.5690 -76.4457 260° West 143 165 3,700  Level FlightAware ADS-B
Sun 02:17:58 PM 39.5656 -76.4715 260° West 140 161 3,700  Level FlightAware ADS-B
Sun 02:18:14 PM 39.5630 -76.4913 260° West 138 159 3,700  Level FlightAware ADS-B
Sun 02:18:31 PM 39.5613 -76.5043 260° West 138 159 3,700  Level FlightAware ADS-B
Sun 02:18:54 PM 39.5589 -76.5220 260° West 139 160 3,700 211 Level FlightAware ADS-B
Sun 02:20:25 PM 39.5500 -76.6000 260° West 133 153 4,100 159 Climbing Potomac TRACON
Sun 02:21:25 PM 39.5500 -76.6500 270° West 135 155 4,100 -52 Level Potomac TRACON
Sun 02:22:20 PM 39.5333 -76.6833 237° Southwest 135 155 4,000  Descending Potomac TRACON
Sun 02:23:26 PM 39.5333 -76.7333 270° West 138 159 4,100  Climbing Potomac TRACON
Sun 02:24:26 PM 39.5167 -76.7833 247° West 141 162 4,000 -52 Descending Potomac TRACON
Sun 02:25:21 PM 39.5167 -76.8333 270° West 137 158 4,000  Level Potomac TRACON
Sun 02:26:21 PM 39.5167 -76.8833 270° West 137 158 4,000  Level Potomac TRACON
Sun 02:27:21 PM 39.5000 -76.9167 237° Southwest 138 159 4,000 -99 Level Potomac TRACON
Sun 02:28:22 PM 39.4667 -76.9500 218° Southwest 143 165 3,800 -397 Descending Potomac TRACON
Sun 02:29:22 PM 39.4167 -76.9667 194° South 158 182 3,200 -446 Descending Potomac TRACON
Sun 02:30:23 PM 39.3833 -77.0000 218° Southwest 143 165 2,900 -149 Descending Potomac TRACON
Sun 02:31:23 PM 39.3500 -77.0333 218° Southwest 137 158 2,900 -99 Level Potomac TRACON
Sun 02:32:24 PM 39.3167 -77.0500 201° Southwest 137 158 2,700 -248 Descending Potomac TRACON
Sun 02:33:24 PM 39.2833 -77.0833 218° Southwest 148 170 2,400 -347 Descending Potomac TRACON
Sun 02:34:25 PM 39.2500 -77.1000 201° Southwest 155 178 2,000 -236 Descending Potomac TRACON
Sun 02:35:31 PM 39.2167 -77.1333 218° Southwest 135 155 1,900 -300 Descending Potomac TRACON
Sun 02:36:25 PM 39.1833 -77.1667 218° Southwest 134 154 1,400 -556 Descending Potomac TRACON
Sun 02:38:00 PM 39.1667 -77.1500 194° South  Level FlightAware Approximate
Sun 02:45:00 PM 39.1683 -77.1660 194° South  Level Estimated
Sun 02:46:00 PM 39.1683 -77.1660 98° East  Level Estimated
Sun 02:47:00 PM 39.1683 -77.1660 194° South  Level Estimated
Sun 02:48:00 PM 39.1683 -77.1660 98° East  Level Estimated
Sun 02:49:00 PM 39.1683 -77.1660 194° South  Level Estimated
Sun 02:50:00 PM 39.1683 -77.1660 98° East  Level Estimated

Login

Don't have an account? Register now (free) for customized features, flight alerts, and more!